Terminal Aerodrome Forecast
Issued by NWS Boston, MA

Home | Current Version | Previous Version | Text Only | Print | Product List | Glossary Off
Versions: 1 2 3 4 5 6 7 8 9 10 11 12 13 14 15 16 17 18 19 20 21 22 23 24 25 26 27 28 29 30 31 32 33 34 35 36 37 38 39 40 41 42 43
000 FTUS41 KBOX 040425 AAA TAFPVD TAF AMD KPVD 040425Z 0404/0424 20010KT 6SM -RASN BR OVC005 WS020/20040KT FM040600 20009KT 6SM -RA BR OVC008 WS020/21045KT FM040900 22009KT 6SM -RA BR OVC008 FM041100 24009KT P6SM OVC008 FM041500 25008KT P6SM OVC025=

USA.gov is the U.S. government's official web portal to all federal, state and local government web resources and services.